Date,TemperatureHighF,TemperatureAvgF,TemperatureLowF,DewpointHighF,DewpointAvgF,DewpointLowF,HumidityHigh,HumidityAvg,HumidityLow,PressureMaxIn,PressureMinIn,WindSpeedMaxMPH,WindSpeedAvgMPH,GustSpeedMaxMPH,PrecipitationSumIn
2013-1-1,31.3,13.6,1.6,16.1,6.4,-2.3,85,73,47,30.05,29.95,7,1,10,0.00
2013-1-2,33.4,21.3,10.8,12.4,6.9,-0.9,85,56,33,30.17,30.01,16,3,28,0.00
2013-1-3,38.1,16.4,0.3,8.0,1.2,-6.2,74,54,21,30.19,30.06,4,1,8,0.00
2013-1-4,45.9,21.9,5.5,16.2,6.2,-0.7,78,56,20,31.46,29.92,4,1,6,0.00
2013-1-5,42.4,24.9,9.0,13.1,6.9,0.8,75,49,26,30.16,29.96,9,2,14,0.00
2013-1-6,47.3,22.3,2.3,17.1,6.3,-3.4,79,56,13,30.16,29.85,6,1,8,0.00
2013-1-7,52.9,31.2,19.4,20.3,13.2,-3.8,79,56,10,29.93,29.74,7,1,10,0.00
2013-1-8,55.8,34.2,20.8,23.3,16.7,5.0,83,55,15,30.11,29.73,7,1,11,0.00
2013-1-9,52.2,31.8,15.4,23.4,16.4,10.7,83,57,22,30.18,29.92,6,1,9,0.00
2013-1-10,38.5,25.6,14.9,23.5,17.4,10.2,83,72,52,29.92,29.44,3,1,6,0.00
2013-1-11,37.4,20.8,1.8,29.2,15.0,-2.7,90,78,58,29.76,29.30,16,3,27,0.00
2013-1-12,17.8,5.0,-8.0,9.9,-0.7,-12.3,85,77,59,29.94,29.76,7,1,10,0.00
2013-1-13,14.9,4.2,-7.8,6.5,-2.7,-12.1,83,73,56,30.02,29.92,4,1,7,0.00
2013-1-14,18.0,3.1,-5.4,1.9,-5.3,-10.6,79,68,45,30.07,29.94,4,1,8,0.00
2013-1-15,32.7,14.0,-8.7,20.2,1.7,-14.3,78,60,34,30.02,29.94,8,1,10,0.00
2013-1-16,56.7,38.4,22.8,21.5,15.7,-0.5,72,45,10,30.25,30.00,11,2,15,0.00
2013-1-17,50.4,29.2,15.1,19.9,14.0,8.5,76,57,21,30.32,30.10,5,1,8,0.00
2013-1-18,61.0,37.6,12.0,22.8,3.6,-11.8,80,37,10,30.11,29.95,11,2,16,0.00
2013-1-19,57.0,40.6,22.1,13.6,1.7,-11.3,61,24,10,30.13,29.98,11,2,16,0.00
2013-1-20,48.4,29.1,15.3,18.9,7.5,-5.8,73,47,11,30.16,30.03,9,2,13,0.00
2013-1-21,54.5,29.5,9.5,21.2,7.4,-5.2,82,49,10,30.13,29.94,8,2,11,0.00
2013-1-22,57.7,33.9,13.5,20.7,7.5,-7.2,79,43,10,30.07,29.93,8,2,11,0.00
2013-1-23,63.7,35.9,17.2,14.4,8.3,-6.1,71,38,10,30.17,29.59,6,1,11,0.12
2013-1-24,62.2,40.4,17.6,24.5,13.3,-3.4,79,41,10,30.15,29.96,14,2,21,0.00
2013-1-25,57.7,37.2,21.9,30.4,21.0,16.3,82,56,22,30.18,30.06,4,1,7,0.00
2013-1-26,52.0,36.5,23.4,31.4,24.0,17.6,83,62,36,30.07,29.81,6,1,10,0.00
2013-1-27,59.0,40.2,25.3,31.7,27.0,20.1,85,62,30,29.82,29.73,10,2,19,0.00
2013-1-28,51.4,32.1,21.2,29.8,22.1,15.8,88,68,34,29.79,29.61,16,3,23,0.00
2013-1-29,35.6,24.4,14.2,22.2,13.3,-3.6,91,67,20,29.95,29.73,14,3,24,0.12
2013-1-30,41.4,23.6,3.0,16.1,8.7,-1.2,88,57,26,29.95,29.82,18,2,24,0.00
2013-1-31,41.2,30.1,19.0,26.3,19.9,14.0,88,67,43,30.14,29.89,9,2,14,0.00
2013-2-1,50.9,31.9,14.5,26.1,16.5,4.4,90,59,16,30.18,29.33,20,4,28,0.00
2013-2-2,55.6,34.6,15.1,27.2,13.9,-0.8,84,50,10,30.27,30.17,11,2,17,0.00
2013-2-3,55.9,33.8,18.7,20.8,8.2,-4.8,74,42,10,30.25,29.91,5,1,8,0.00
2013-2-4,56.7,32.6,18.5,18.0,8.1,-6.3,70,42,10,30.00,29.86,5,1,9,0.00
2013-2-5,55.8,37.2,18.1,21.1,13.1,1.4,77,43,11,30.06,29.87,11,2,14,0.01
2013-2-6,54.0,39.6,25.7,26.6,18.7,10.0,75,46,18,30.10,29.85,12,3,21,0.00
2013-2-7,49.5,31.6,16.7,25.1,13.2,6.2,85,52,18,30.16,30.03,11,2,15,0.00
2013-2-8,52.2,29.3,13.5,17.1,7.4,-4.8,78,48,10,30.03,29.75,4,1,7,0.00
2013-2-9,43.5,31.3,20.5,26.7,18.0,8.9,81,59,36,29.75,29.61,11,4,20,0.00
2013-2-10,36.9,30.3,19.9,17.7,9.8,0.6,71,44,22,30.05,29.64,12,6,24,0.00
2013-2-11,32.2,21.6,10.6,18.0,11.5,1.2,89,66,43,30.07,29.97,8,2,11,0.00
2013-2-12,47.8,25.0,4.1,12.3,-1.6,-13.6,73,41,10,30.04,29.97,9,2,12,0.00
2013-2-13,51.6,30.6,11.3,13.2,5.6,-4.8,70,42,10,30.04,29.91,17,3,24,0.01
2013-2-14,32.7,27.6,21.4,23.1,17.3,8.1,90,67,35,30.25,30.00,14,4,24,0.00
2013-2-15,41.5,28.5,16.0,22.3,12.0,-9.8,92,59,12,30.26,30.18,21,5,34,0.02
2013-2-16,59.7,33.0,11.7,20.4,6.8,-9.3,86,45,10,30.19,29.96,14,3,18,0.00
2013-2-17,62.6,38.0,19.6,18.7,7.2,-5.9,64,35,10,29.97,29.61,17,4,27,0.00
2013-2-18,43.5,32.2,15.3,19.6,2.8,-13.2,62,35,10,30.08,29.81,16,5,23,0.00
2013-2-19,41.5,25.0,10.9,15.7,8.5,2.7,73,52,23,30.09,29.85,5,1,8,0.00
2013-2-20,38.5,24.4,16.9,24.4,16.3,8.4,88,72,37,29.85,29.70,8,3,13,0.00
2013-2-21,33.4,23.1,14.7,22.0,17.0,10.8,94,78,54,30.19,29.77,8,2,18,0.11
2013-2-22,34.9,22.0,8.4,23.0,15.4,5.7,92,77,50,30.24,30.13,9,2,14,0.07
2013-2-23,40.8,25.9,10.6,27.3,15.6,6.8,89,67,33,30.14,29.96,7,1,11,0.00
2013-2-24,29.7,26.5,12.0,27.1,22.2,5.7,94,84,69,30.38,30.05,14,4,21,0.00
2013-2-25,33.6,16.7,0.3,19.3,8.9,-3.5,86,72,49,30.38,30.15,6,1,8,0.01
2013-2-26,37.8,27.2,11.1,23.7,17.1,7.4,88,67,38,30.40,30.10,14,5,23,0.00
2013-2-27,42.8,28.3,16.7,15.9,10.7,-4.5,77,50,14,30.50,30.40,13,4,18,0.00
2013-2-28,43.0,30.3,10.4,20.0,9.0,-10.8,85,47,10,30.50,30.42,10,3,14,0.00
2013-3-1,43.3,34.5,23.0,25.0,18.4,13.3,79,53,32,30.56,30.47,9,3,14,0.00
2013-3-2,58.1,39.8,20.8,30.4,22.5,13.4,87,57,18,30.55,30.32,9,2,14,0.00
2013-3-3,64.6,45.9,29.7,31.6,21.3,3.9,83,47,10,30.33,29.98,11,2,19,0.00
2013-3-4,47.8,30.2,20.1,26.1,16.3,4.1,83,58,31,30.31,30.00,17,4,27,0.02
2013-3-5,39.9,25.9,9.1,19.5,11.6,3.8,81,57,27,30.22,30.01,11,2,16,0.00
2013-3-6,54.1,40.6,24.8,24.9,21.5,13.1,77,49,20,30.01,29.73,8,3,15,0.00
2013-3-7,64.6,43.5,24.6,28.5,19.5,4.1,82,46,10,29.85,29.74,11,2,18,0.00
2013-3-8,49.5,36.9,26.1,31.1,26.8,20.5,82,68,45,29.85,29.60,5,1,8,0.00
2013-3-9,39.9,34.3,27.9,31.7,22.3,12.2,89,63,37,29.94,29.55,19,7,29,0.04
2013-3-10,51.8,38.8,24.4,17.6,6.7,-10.4,64,32,10,29.96,29.87,19,7,30,0.01
2013-3-11,58.1,39.8,24.8,30.0,15.9,-1.9,92,49,10,29.97,29.77,17,4,27,0.00
2013-3-12,36.7,30.7,24.1,28.4,24.3,20.5,93,77,65,30.14,30.01,11,3,17,0.15
2013-3-13,62.8,42.2,22.8,34.4,26.1,19.5,93,60,19,30.10,30.02,10,2,17,0.00
2013-3-14,70.3,53.9,36.3,36.8,22.8,6.7,79,39,10,30.13,29.97,10,2,15,0.00
2013-3-15,77.9,56.5,36.0,34.9,21.7,3.5,78,37,10,29.97,29.75,14,4,25,0.00
2013-3-16,57.7,47.4,35.2,32.7,27.7,20.1,78,48,23,29.91,29.70,11,3,18,0.00
2013-3-17,57.6,44.7,34.2,32.4,10.2,-15.7,79,28,10,29.75,29.46,24,7,36,0.04
2013-3-18,51.3,40.7,21.0,17.8,-3.0,-18.4,51,18,10,29.80,29.71,17,6,27,0.00
2013-3-19,55.2,40.8,22.8,16.6,1.4,-15.1,65,25,10,30.18,29.79,16,5,27,0.00
2013-3-20,46.9,30.7,13.6,20.4,13.4,7.2,78,52,23,30.16,29.63,4,1,8,0.00
2013-3-21,54.7,38.6,25.5,31.5,13.9,-10.8,77,44,10,29.71,29.49,18,5,27,0.00
2013-3-22,42.8,32.1,22.8,28.6,15.3,0.8,91,55,25,29.81,29.63,11,3,22,0.00
2013-3-23,26.2,20.5,8.4,22.0,14.8,2.9,90,79,47,30.00,29.78,12,4,20,0.04
2013-3-24,33.3,18.5,4.5,14.9,6.9,0.0,82,63,30,30.05,29.91,11,3,19,0.01
2013-3-25,34.5,22.4,9.9,15.9,11.8,5.5,85,65,40,30.09,30.01,11,3,16,0.00
2013-3-26,44.6,30.8,12.4,31.2,15.7,6.2,78,57,28,30.02,29.80,6,1,10,0.00
2013-3-27,54.7,41.0,29.1,34.0,29.8,24.6,88,67,34,29.98,29.87,10,3,16,0.00
2013-3-28,67.1,45.1,25.7,35.3,23.7,6.5,88,54,10,29.98,29.89,11,2,17,0.00
2013-3-29,70.3,50.6,32.4,34.5,24.5,8.6,81,44,10,29.98,29.89,13,3,23,0.00
2013-3-30,67.6,45.4,29.7,40.6,28.4,5.7,93,61,10,30.08,29.88,13,3,27,0.08
2013-3-31,70.0,46.6,24.8,39.2,22.4,2.8,93,53,10,30.07,29.79,8,1,12,0.01
2013-4-1,53.1,40.6,27.9,29.7,26.1,20.4,77,58,37,30.02,29.90,8,2,11,0.01
2013-4-2,43.5,39.2,35.1,37.4,32.5,28.4,91,77,64,29.98,29.93,6,2,10,0.01
2013-4-3,62.8,47.0,34.3,38.5,32.6,24.2,95,64,28,30.00,29.88,11,3,17,0.00
2013-4-4,71.1,53.0,30.7,35.1,24.8,9.0,83,42,10,30.01,29.86,10,2,14,0.00
2013-4-5,75.0,53.8,41.0,35.6,27.4,9.0,72,42,10,29.86,29.60,17,3,25,0.00
2013-4-6,65.8,55.6,41.7,23.8,14.1,3.2,42,21,10,29.82,29.73,18,3,27,0.01
2013-4-7,65.3,51.0,35.8,41.1,29.2,10.7,92,50,13,29.77,29.59,16,3,23,0.02
2013-4-8,68.0,42.9,25.0,38.0,27.6,16.1,85,60,16,29.75,29.37,20,6,32,0.01
2013-4-9,25.0,19.0,13.8,20.6,10.1,3.5,85,68,54,30.03,29.74,18,7,28,0.00
2013-4-10,30.4,20.4,7.7,22.3,12.3,-0.1,84,71,49,30.00,29.77,12,4,17,0.00
2013-4-11,58.6,37.4,16.0,33.1,21.1,12.3,87,58,19,29.80,29.62,15,4,23,0.00
2013-4-12,56.7,42.3,29.3,32.8,29.0,24.9,91,62,30,29.87,29.77,14,3,26,0.00
2013-4-13,62.6,45.8,27.3,38.7,28.4,6.6,92,59,12,29.85,29.37,15,3,28,0.07
2013-4-14,47.3,43.0,36.1,36.0,-0.3,-11.5,80,19,10,29.64,29.45,23,8,35,0.01
2013-4-15,37.6,27.7,23.7,27.3,22.1,9.2,91,81,32,29.90,29.62,8,2,14,0.05
2013-4-16,34.0,27.8,23.4,28.7,25.4,21.4,96,90,79,29.89,29.75,8,1,17,0.04
2013-4-17,32.0,27.2,21.4,28.9,23.4,11.8,96,86,66,30.00,29.82,11,3,17,0.00
2013-4-18,40.1,26.5,10.4,15.9,10.7,1.7,81,54,20,29.98,29.92,15,4,24,0.09
2013-4-19,56.3,35.1,14.0,29.0,18.1,5.9,83,55,14,29.96,29.83,8,2,12,0.00
2013-4-20,58.5,44.2,29.8,36.0,29.5,21.3,85,60,26,29.89,29.79,7,1,14,0.00
2013-4-21,63.3,47.3,30.2,38.2,28.7,13.1,93,56,14,29.94,29.85,14,2,21,0.00
2013-4-22,44.2,32.9,23.7,39.1,28.7,21.8,93,85,63,30.14,29.80,15,3,24,0.01
2013-4-23,34.2,26.7,18.9,22.2,17.8,13.4,93,71,46,30.11,29.98,8,2,11,0.21
2013-4-24,57.0,39.2,21.6,26.1,16.9,-1.2,87,50,10,30.05,29.96,11,2,16,0.00
2013-4-25,65.8,45.2,25.9,29.6,18.8,2.8,82,46,10,30.02,29.79,8,2,14,0.00
2013-4-26,70.3,53.1,34.2,29.6,18.1,3.4,72,35,10,30.07,29.88,8,2,12,0.00
2013-4-27,77.5,58.0,31.6,34.5,18.4,3.1,76,32,10,30.07,29.88,13,3,18,0.00
2013-4-28,81.0,62.2,36.3,36.4,21.7,10.6,80,30,10,29.90,29.72,12,3,22,0.07
2013-4-29,81.5,65.8,46.8,38.3,25.4,7.9,66,27,10,29.83,29.52,13,3,19,0.04
2013-4-30,68.0,48.1,32.9,41.8,32.7,8.3,92,60,10,29.92,29.55,12,4,20,0.46
2013-5-1,34.0,29.9,19.2,31.8,26.9,16.1,96,88,77,30.40,29.92,5,1,9,0.13
2013-5-2,45.0,31.2,13.8,26.4,17.0,6.8,90,61,21,30.45,30.24,5,2,8,0.24
2013-5-3,61.2,43.0,23.7,32.9,24.4,15.3,84,53,19,30.25,29.95,6,1,9,0.00
2013-5-4,61.3,48.3,37.4,33.8,28.4,16.8,85,50,20,30.09,29.97,6,2,11,0.00
2013-5-5,59.9,47.8,31.3,28.5,23.5,14.2,70,41,19,30.10,29.95,12,2,21,0.00
2013-5-6,68.2,53.2,35.2,39.1,28.3,13.5,80,45,12,29.96,29.79,8,2,11,0.00
2013-5-7,70.7,55.3,38.7,43.9,38.5,26.7,87,57,21,29.89,29.78,8,2,14,0.01
2013-5-8,69.1,53.7,45.7,46.9,42.1,29.4,90,68,26,29.97,29.83,13,2,20,0.43
2013-5-9,61.0,51.5,43.9,47.6,42.5,36.9,91,73,43,30.07,29.96,9,2,13,0.24
2013-5-10,72.3,55.0,38.3,45.8,36.0,11.0,94,56,11,30.19,30.02,10,2,17,0.00
2013-5-11,68.9,55.4,42.8,45.7,40.8,32.5,85,60,27,30.25,30.08,11,2,14,0.00
2013-5-12,82.0,64.6,43.7,45.2,31.5,15.8,89,41,10,30.10,29.94,12,2,17,0.00
2013-5-13,88.0,69.3,47.8,47.1,33.9,19.9,74,37,10,30.03,29.90,8,1,13,0.02
2013-5-14,86.5,68.0,47.1,47.4,35.2,16.0,78,39,10,29.92,29.79,24,2,34,0.00
2013-5-15,84.7,66.8,50.0,53.6,39.6,17.4,79,46,10,29.88,29.78,17,2,27,0.01
2013-5-16,82.8,66.2,50.2,53.4,40.0,15.2,93,50,10,29.85,29.68,10,2,14,0.01
2013-5-17,86.7,68.7,48.4,49.5,36.3,18.4,86,39,10,29.80,29.65,11,2,18,0.00
2013-5-18,79.0,64.2,47.8,37.4,27.2,13.0,57,29,10,29.80,29.66,15,3,21,0.00
2013-5-19,73.4,61.7,52.3,35.2,26.3,10.7,46,28,10,29.76,29.65,13,5,25,0.00
2013-5-20,64.8,55.6,47.1,47.2,38.9,30.8,91,56,33,29.91,29.75,16,5,29,0.12
2013-5-21,71.1,59.1,43.2,35.7,26.1,10.7,68,34,10,29.92,29.76,14,4,25,0.00
2013-5-22,76.5,57.8,37.6,46.0,34.9,19.6,81,48,12,29.97,29.77,8,2,15,0.00
2013-5-23,69.6,56.7,48.6,52.2,47.3,44.2,90,73,42,30.00,29.85,11,4,17,0.00
2013-5-24,85.8,65.2,46.6,53.5,41.7,18.5,96,56,10,29.90,29.78,8,2,14,0.00
2013-5-25,86.5,69.1,48.4,55.6,40.9,20.7,91,47,10,29.90,29.74,9,2,14,0.00
2013-5-26,85.8,68.4,51.8,49.6,32.3,14.1,66,34,10,29.83,29.74,11,2,17,0.00
2013-5-27,83.5,65.5,44.1,43.6,28.4,12.2,75,34,10,29.77,29.64,12,2,24,0.01
2013-5-28,82.0,63.8,49.6,47.2,37.5,17.7,66,42,10,29.76,29.49,18,3,30,0.00
2013-5-29,66.2,56.4,47.5,50.8,43.1,29.7,95,64,33,29.64,29.52,8,2,14,0.46
2013-5-30,71.1,59.5,41.9,38.7,22.2,8.2,80,32,10,29.77,29.56,21,6,33,0.00
2013-5-31,72.5,61.4,41.7,32.6,15.0,3.1,56,20,10,29.93,29.74,16,6,28,0.00
2013-6-1,74.7,60.6,45.0,35.1,28.9,11.9,66,33,10,30.09,29.94,13,5,23,0.00
2013-6-2,82.0,60.9,0.0,41.3,32.8,17.3,87,43,10,30.08,29.72,9,2,17,0.00
2013-6-3,90.9,68.4,42.3,45.6,28.7,5.4,82,33,10,29.82,29.64,11,2,19,0.00
2013-6-4,76.1,62.3,50.4,46.3,42.3,9.0,75,50,12,30.07,29.82,9,3,20,0.00
2013-6-5,63.1,54.7,47.5,46.2,42.4,38.4,83,64,48,30.77,29.98,10,2,14,0.00
2013-6-6,83.1,62.3,40.6,48.3,35.5,17.3,93,49,10,30.00,29.90,8,1,12,0.00
2013-6-7,83.5,67.7,50.7,49.3,40.0,21.1,78,41,13,30.00,29.69,10,2,13,0.00
2013-6-8,81.1,65.5,50.5,49.6,40.4,19.5,84,46,11,29.93,29.67,16,4,32,0.00
2013-6-9,88.5,68.4,45.9,47.3,36.6,21.1,81,42,10,29.94,29.79,8,2,14,0.01
2013-6-10,97.0,73.8,49.5,50.9,38.9,24.3,80,37,10,29.85,29.74,11,2,24,0.00
2013-6-11,97.7,77.8,53.2,49.3,33.6,12.7,75,28,10,29.90,29.69,10,2,25,0.00
2013-6-12,91.8,77.0,53.4,53.2,28.8,9.0,64,21,10,30.05,29.89,11,3,16,0.00
2013-6-13,83.8,67.1,55.9,57.4,52.9,44.7,83,63,35,30.05,29.79,8,1,14,0.00
2013-6-14,92.7,73.7,53.6,51.8,38.9,21.8,83,39,10,29.90,29.80,8,2,17,0.00
2013-6-15,80.8,69.2,50.7,56.5,46.1,32.5,88,47,21,29.99,29.84,9,2,15,0.15
2013-6-16,82.6,67.1,52.5,61.5,46.5,16.7,95,57,11,29.99,29.91,11,1,17,0.01
2013-6-17,82.6,65.5,47.8,57.0,48.6,31.0,91,58,19,30.06,29.91,7,0,12,0.00
2013-6-18,84.4,68.7,55.9,54.9,48.8,37.0,76,52,22,30.03,29.79,9,1,17,0.09
2013-6-19,94.1,72.0,49.3,54.8,43.6,21.9,92,48,10,29.92,29.59,11,2,15,0.01
2013-6-20,88.5,74.1,59.7,55.8,31.3,8.1,82,27,10,29.84,29.68,10,2,20,0.00
2013-6-21,95.0,75.5,55.9,58.9,43.0,24.9,79,40,10,29.84,29.67,8,2,14,0.04
2013-6-22,87.8,55.6,0.0,57.2,49.2,22.6,77,42,10,29.89,0.00,12,2,22,0.00
2013-6-23,83.8,60.0,0.0,55.0,44.7,32.9,85,37,20,29.92,0.00,11,2,17,0.00
2013-6-24,92.5,74.3,59.4,51.1,39.2,13.4,71,36,10,29.71,29.54,15,3,24,0.00
2013-6-25,90.0,77.7,58.3,44.6,28.0,14.4,46,19,10,29.79,29.62,14,3,24,0.00
2013-6-26,96.6,75.8,55.6,49.9,38.9,23.0,68,34,10,29.88,29.78,7,1,13,0.08
2013-6-27,97.0,80.7,59.7,50.2,36.6,22.8,51,26,10,30.01,29.84,12,2,17,0.00
2013-6-28,97.3,79.2,60.8,60.3,47.6,30.9,95,39,10,30.01,29.87,19,2,30,0.98
2013-6-29,87.8,75.2,57.2,60.8,55.3,43.4,94,54,22,30.01,29.86,1,0,2,0.04
2013-6-30,82.2,70.9,61.5,57.2,54.1,48.8,78,57,32,29.98,29.91,5,0,9,0.00
2013-7-1,79.9,66.9,56.7,59.9,53.7,48.6,87,65,34,30.07,29.96,7,1,11,0.01
2013-7-2,85.3,68.7,52.9,57.4,51.3,39.9,96,60,21,30.03,29.89,6,1,12,0.05
2013-7-3,88.2,69.7,50.5,51.6,46.0,30.8,85,49,14,29.91,29.71,6,1,11,0.00
2013-7-4,94.6,77.0,57.0,56.4,41.9,24.8,80,37,10,29.79,29.68,8,1,14,0.00
2013-7-5,89.2,71.6,62.2,63.7,54.8,43.5,90,59,23,29.73,29.65,14,1,23,0.31
2013-7-6,92.1,76.0,60.8,59.8,51.1,29.9,90,48,12,29.77,29.67,8,2,13,0.00
2013-7-7,87.3,74.5,62.8,66.1,56.7,48.9,79,56,31,29.86,29.75,13,2,18,0.05
2013-7-8,91.4,80.0,64.0,54.0,44.7,26.0,69,33,10,29.88,29.80,9,2,14,0.00
2013-7-9,95.4,76.5,56.3,59.3,43.1,25.5,87,41,10,29.99,29.87,14,1,24,0.00
2013-7-10,89.4,74.5,57.6,62.4,54.4,46.7,81,52,26,30.00,29.79,10,2,17,0.00
2013-7-11,98.2,77.9,57.4,60.3,49.9,30.8,88,47,10,29.90,29.65,13,2,22,0.00
2013-7-12,91.4,74.1,63.9,65.3,56.3,38.3,84,58,20,29.86,29.72,10,1,19,0.05
2013-7-13,93.6,73.7,63.1,65.8,60.9,47.5,93,69,23,29.96,29.81,11,1,16,0.06
2013-7-14,84.0,70.7,58.1,65.4,61.4,56.4,96,74,48,30.00,29.87,8,1,17,0.00
2013-7-15,81.5,72.4,65.5,66.6,63.2,57.3,96,75,48,29.98,29.86,11,2,19,0.01
2013-7-16,85.1,72.4,51.3,57.8,48.9,40.5,90,48,22,30.00,29.89,10,3,17,0.21
2013-7-17,91.0,73.3,55.9,60.7,53.4,41.7,95,57,19,30.00,29.84,8,1,12,0.00
2013-7-18,94.1,70.8,59.0,64.3,56.6,43.1,93,66,19,29.97,29.83,11,2,20,0.60
2013-7-19,80.6,71.0,60.4,66.3,60.3,55.7,96,71,45,29.98,29.86,6,1,12,0.00
2013-7-20,86.5,69.9,57.2,63.6,57.0,48.2,97,67,35,29.88,29.74,14,1,30,0.00
2013-7-21,83.7,69.1,53.6,63.5,57.9,51.5,96,70,39,29.82,29.67,6,1,10,0.00
2013-7-22,91.2,75.1,54.3,66.0,56.2,45.3,90,57,22,29.79,29.69,7,1,13,0.00
2013-7-23,87.1,73.3,53.2,63.2,56.1,48.2,87,58,32,29.89,29.69,6,1,11,0.00
2013-7-24,83.1,71.7,59.5,64.7,56.0,29.9,89,62,16,29.95,29.75,13,2,20,0.00
2013-7-25,80.1,67.9,58.5,63.9,58.6,53.2,95,73,44,29.95,29.82,8,1,14,0.09
2013-7-26,85.6,70.1,54.9,59.2,50.8,36.7,89,55,19,30.00,29.86,8,2,15,0.00
2013-7-27,75.9,64.3,52.5,58.9,54.2,48.8,89,71,52,29.91,29.79,7,1,15,0.00
2013-7-28,73.6,63.7,59.2,63.0,59.1,55.4,94,86,63,29.84,29.69,8,1,12,0.09
2013-7-29,78.1,66.7,59.9,63.7,56.8,41.1,99,74,29,29.90,29.71,9,1,14,0.02
2013-7-30,90.0,70.6,55.6,59.8,51.9,32.2,88,58,15,29.96,29.87,8,1,17,0.06
2013-7-31,90.3,70.9,53.1,57.7,52.1,40.3,92,57,18,30.03,29.88,8,1,14,0.01
2013-8-1,87.8,73.1,55.0,61.3,54.2,36.5,96,56,17,29.94,29.72,8,1,15,0.00
2013-8-2,92.1,72.6,55.2,62.6,54.0,33.0,92,58,16,29.81,29.70,8,1,13,0.04
2013-8-3,89.1,69.1,59.0,68.0,60.2,50.2,96,76,28,29.97,29.78,14,2,29,1.00
2013-8-4,82.2,68.9,53.6,64.7,57.2,50.9,95,69,36,29.92,29.81,5,0,9,0.00
2013-8-5,87.6,70.6,55.2,60.7,52.9,40.2,89,58,23,29.84,29.76,6,0,11,0.00
2013-8-6,87.4,69.5,52.9,61.4,51.2,25.7,91,59,13,29.81,29.72,8,1,15,0.00
2013-8-7,73.6,64.9,56.8,59.7,56.0,50.8,93,74,51,29.86,29.76,10,1,17,0.00
2013-8-8,75.2,64.7,56.3,61.3,57.5,50.1,97,79,53,29.90,29.78,6,0,10,0.00
2013-8-9,79.9,65.3,49.8,56.9,51.2,45.2,91,64,34,29.94,29.86,9,1,13,0.00
2013-8-10,85.5,68.3,49.5,57.1,48.9,32.0,96,58,17,29.95,29.82,10,1,15,0.00
2013-8-11,82.6,69.1,59.4,58.9,50.8,33.4,89,56,18,29.92,29.85,8,0,12,0.00
2013-8-12,84.4,66.4,52.3,60.2,52.8,37.5,93,65,20,29.98,29.85,8,0,15,0.00
2013-8-13,79.5,64.7,49.5,55.7,49.6,39.7,93,62,26,29.96,29.86,8,1,12,0.00
2013-8-14,82.4,66.0,49.6,56.4,49.4,32.8,95,61,22,29.95,29.83,10,1,17,0.00
2013-8-15,85.6,68.2,47.3,56.8,49.5,41.2,91,57,23,29.91,29.81,5,0,11,0.00
2013-8-16,88.7,69.9,50.4,58.2,49.8,31.2,88,56,13,29.90,29.82,8,0,11,0.00
2013-8-17,92.5,73.0,55.2,62.9,54.5,32.3,94,60,12,29.90,29.74,7,1,11,0.00
2013-8-18,91.8,71.3,53.8,64.7,51.6,22.8,96,59,10,29.88,29.78,8,1,17,0.00
2013-8-19,94.3,73.3,52.2,58.4,46.8,27.0,90,50,10,29.85,29.73,8,1,15,0.00
2013-8-20,97.0,75.5,53.8,53.4,42.4,23.0,79,39,10,29.78,29.71,9,1,16,0.00
2013-8-21,92.8,78.6,68.0,59.4,47.0,36.3,61,35,14,29.90,29.77,8,2,14,0.00
2013-8-22,82.4,71.0,58.1,64.4,58.7,53.3,89,67,44,29.95,29.83,8,1,12,0.00
2013-8-23,88.2,72.2,57.7,62.5,55.6,45.5,95,61,27,29.91,29.69,7,1,13,0.00
2013-8-24,89.6,72.5,53.4,58.0,49.9,37.1,88,51,18,29.83,29.74,11,1,21,0.00
2013-8-25,91.2,73.9,56.5,57.3,50.7,34.0,83,50,14,29.87,29.78,10,1,17,0.00
2013-8-26,92.8,74.5,57.9,60.1,54.1,41.5,85,54,17,29.88,29.80,5,1,11,0.00
2013-8-27,92.7,76.6,59.7,61.3,54.7,42.1,86,53,18,29.88,29.75,8,1,12,0.00
2013-8-28,92.1,76.7,60.3,59.9,52.6,39.8,81,48,18,29.87,29.78,7,1,11,0.00
2013-8-29,96.3,76.2,57.7,56.5,47.2,28.4,76,42,10,29.90,29.83,10,1,17,0.00
2013-8-30,89.8,73.8,57.9,59.8,51.2,36.2,77,49,18,29.92,29.81,10,1,16,0.00
2013-8-31,90.5,72.6,58.1,58.1,50.9,32.5,85,52,13,29.88,29.78,9,1,17,0.00
2013-9-1,81.1,69.5,60.3,58.9,54.9,50.1,85,61,42,29.94,29.83,11,2,16,0.00
2013-9-2,90.1,70.6,54.7,61.6,54.8,40.6,95,63,21,29.88,29.74,6,1,10,0.00
2013-9-3,93.2,75.8,58.1,60.2,51.3,36.6,83,49,15,29.86,29.77,8,2,14,0.00
2013-9-4,96.8,83.4,65.3,60.4,48.9,27.7,65,34,10,29.83,29.62,7,1,11,0.00
2013-9-5,91.8,78.5,62.2,61.3,53.4,42.5,83,46,20,29.84,29.75,7,1,13,0.00
2013-9-6,97.5,76.3,63.0,59.7,49.0,29.4,74,45,10,29.80,29.71,10,2,17,0.00
2013-9-7,94.1,74.8,57.6,56.4,47.5,26.3,81,45,10,29.78,29.67,5,1,11,0.00
2013-9-8,93.6,73.3,55.4,53.9,46.1,28.1,79,44,11,29.70,29.53,8,2,13,0.00
2013-9-9,83.8,66.8,56.8,60.6,55.2,49.1,97,70,33,29.72,29.57,11,2,16,0.00
2013-9-10,68.9,62.0,58.1,61.3,59.2,57.6,99,91,72,29.85,29.69,4,1,8,0.00
2013-9-11,67.1,62.6,60.1,64.4,61.7,59.7,99,97,89,29.88,29.83,4,1,14,0.00
2013-9-12,64.8,61.6,59.2,64.0,60.9,58.9,99,98,89,29.93,29.84,5,1,12,0.00
2013-9-13,65.3,60.9,59.7,64.7,60.6,59.5,99,99,99,29.85,29.67,5,1,12,0.00
2013-9-16,71.1,64.1,55.9,59.1,56.6,54.7,96,78,62,29.84,29.68,6,1,9,0.00
2013-9-17,84.7,64.9,47.5,62.2,51.5,33.5,99,69,17,29.71,29.50,8,1,12,0.00
2013-9-18,84.6,68.2,55.2,54.7,48.5,31.9,92,54,19,29.57,29.47,9,2,17,0.00
2013-9-19,68.4,58.1,47.1,51.6,42.6,32.3,90,59,34,29.81,29.57,8,1,14,0.00
2013-9-20,72.1,55.9,41.7,49.1,43.8,33.5,94,69,26,29.83,29.67,7,1,11,0.28
2013-9-21,82.2,60.9,42.1,53.2,45.4,30.3,96,65,16,29.69,29.47,7,1,11,0.11
2013-9-22,81.1,61.3,48.9,53.3,48.7,38.2,90,68,24,29.48,29.30,9,1,16,0.13
2013-9-23,68.7,58.6,44.8,52.7,38.1,22.1,93,52,18,29.69,29.28,17,5,28,0.37
2013-9-24,74.1,54.4,37.6,47.1,38.9,27.8,93,63,18,29.77,29.53,8,2,14,0.00
2013-9-25,78.4,57.9,40.5,50.1,44.8,38.0,93,66,30,29.53,29.17,6,1,11,0.00
2013-9-26,68.7,54.9,40.6,48.2,43.7,36.5,89,68,39,29.49,29.27,8,1,11,0.00
2013-9-27,53.8,47.6,40.6,50.7,45.3,39.9,98,92,84,29.65,29.42,4,1,11,0.15
2013-9-28,65.3,47.9,32.9,42.5,36.5,28.9,99,71,27,29.76,29.64,7,1,11,0.01
2013-9-29,74.7,52.9,35.6,44.7,36.1,13.4,91,61,10,29.74,29.54,6,1,11,0.00
2013-9-30,75.9,57.6,42.8,48.6,41.6,31.4,84,60,22,29.58,29.44,4,1,6,0.01
2013-10-1,71.1,57.9,46.8,42.6,35.5,25.9,78,46,21,29.76,29.56,8,2,14,0.00
2013-10-2,77.7,57.0,39.2,46.8,35.2,16.3,88,52,10,29.64,29.55,7,1,11,0.00
2013-10-3,65.5,50.5,37.8,44.0,38.3,32.2,87,65,36,29.60,29.41,6,1,10,0.27
2013-10-4,45.9,39.3,34.5,41.9,25.9,13.6,87,61,37,29.82,29.49,14,6,25,0.20
2013-10-5,61.5,48.2,34.0,17.4,4.5,-7.4,50,19,10,29.81,29.72,12,5,26,0.00
2013-10-6,70.3,50.9,31.1,34.1,18.7,-5.4,72,35,10,29.88,29.78,8,2,11,0.00
2013-10-7,74.5,52.0,31.5,38.7,27.8,10.7,80,49,10,29.83,29.57,6,1,11,0.00
2013-10-8,78.6,56.0,41.9,43.0,29.1,9.6,76,46,10,29.57,29.41,8,1,12,0.00
2013-10-9,65.8,54.3,40.5,39.2,33.0,25.7,72,47,24,29.62,29.47,5,1,11,0.00
2013-10-10,58.3,49.8,41.5,43.6,37.6,29.9,81,64,42,29.61,29.22,9,1,15,0.07
2013-10-11,60.4,53.3,37.9,36.3,18.8,2.7,71,30,10,29.71,29.19,17,4,27,0.00
2013-10-12,56.5,45.2,35.6,34.6,32.0,27.8,76,61,38,29.82,29.71,6,1,9,0.00
2013-10-13,62.1,46.7,33.4,39.0,33.0,27.0,80,62,30,29.77,29.53,6,1,9,0.00
2013-10-14,77.7,48.5,38.3,39.8,30.5,16.7,79,54,11,29.84,29.47,15,4,26,0.01
2013-10-15,48.6,40.4,32.4,20.5,13.6,4.6,59,34,17,29.93,29.83,11,3,19,0.00
2013-10-16,57.4,37.9,23.7,26.4,15.5,-2.2,75,48,10,29.85,29.65,6,1,9,0.00
2013-10-17,47.7,38.9,29.8,28.1,23.4,17.1,76,55,35,29.79,29.70,8,2,11,0.00
2013-10-18,47.8,37.2,28.9,31.7,20.5,-0.2,81,55,15,29.85,29.75,11,2,18,0.50
2013-10-19,62.4,41.8,24.4,29.9,16.7,0.1,75,46,10,29.76,29.59,8,1,11,0.00
2013-10-20,44.4,38.2,31.3,33.5,28.2,21.8,78,67,52,29.80,29.58,8,1,14,0.15
2013-10-21,60.6,42.2,24.6,33.9,18.0,1.3,79,48,10,29.82,29.72,10,1,18,0.01
2013-10-22,66.7,48.2,31.5,30.6,20.2,4.8,71,40,10,29.87,29.76,8,2,14,0.00
2013-10-23,66.4,46.9,30.0,32.6,20.0,4.6,72,43,10,29.90,29.77,8,2,16,0.00
2013-10-24,57.2,40.5,28.8,31.4,26.1,20.4,74,58,30,29.93,29.84,5,1,7,0.00
2013-10-25,71.2,47.0,27.9,38.5,18.8,-1.2,76,44,10,29.89,29.74,8,1,11,0.05
2013-10-26,63.5,46.4,31.8,29.3,18.7,2.8,66,40,10,29.99,29.79,8,1,13,0.00
2013-10-27,72.7,49.3,27.3,31.5,16.6,1.0,70,36,10,29.80,29.53,5,1,8,0.00
2013-10-28,77.7,41.0,32.2,40.8,24.8,15.4,75,59,11,29.81,29.58,6,2,10,0.01
2013-10-29,39.7,35.2,32.4,27.5,25.4,23.5,76,68,53,29.77,29.66,7,1,11,0.02
2013-10-30,77.7,43.9,28.9,46.7,28.9,18.7,88,61,11,29.94,29.76,6,1,10,0.21
2013-10-31,56.1,40.2,23.5,31.3,10.4,-7.2,75,40,10,29.83,29.74,10,2,19,0.00
2013-11-1,54.3,43.5,27.3,23.6,8.2,-9.3,52,27,10,30.13,29.83,13,4,25,0.00
2013-11-2,57.2,36.8,21.9,21.5,10.3,-3.3,64,41,10,30.13,29.72,5,1,8,0.00
2013-11-3,67.5,45.7,30.4,24.2,10.4,-13.6,60,30,10,29.78,29.54,12,3,26,0.00
2013-11-4,43.0,35.7,27.3,18.9,0.3,-16.5,58,25,10,29.95,29.78,12,3,17,0.00
2013-11-5,45.5,34.4,17.8,16.9,-4.9,-22.3,50,22,10,30.06,29.86,14,5,27,0.00
2013-11-6,53.4,32.8,15.4,12.2,-0.1,-13.6,58,31,10,30.24,30.04,18,3,27,0.00
2013-11-7,55.6,36.4,19.9,15.9,4.7,-7.7,55,32,10,30.28,29.92,7,1,9,0.00
2013-11-8,64.0,43.0,24.1,16.5,7.1,-7.9,57,29,10,34.46,29.76,9,1,14,0.00
2013-11-9,54.5,39.7,27.1,22.0,11.8,-1.6,57,35,10,30.17,29.96,4,1,7,0.00
2013-11-10,66.0,42.7,27.9,22.8,11.5,-3.3,59,34,10,30.16,30.05,6,1,9,0.00
2013-11-11,60.8,35.7,25.2,19.0,12.6,-4.0,60,42,10,30.50,30.10,10,2,19,0.00
2013-11-12,53.4,34.9,23.5,25.4,16.0,9.4,66,49,17,30.50,30.25,8,1,10,0.00
2013-11-13,65.5,43.8,21.0,18.5,5.5,-5.9,56,27,10,30.25,29.95,5,1,8,0.00
2013-11-14,56.8,46.8,33.3,18.5,8.4,-3.9,50,24,10,30.01,29.72,12,3,19,0.00
2013-11-15,50.0,32.9,25.9,21.5,16.8,12.2,63,52,23,29.72,29.61,5,1,7,0.00
2013-11-16,57.6,40.8,23.9,20.4,4.5,-9.0,55,27,10,29.58,29.33,20,4,34,0.01
2013-11-17,56.8,41.4,25.2,20.6,-4.4,-18.7,61,17,10,30.00,29.53,20,5,36,0.02
2013-11-18,58.3,35.0,17.8,7.2,-0.5,-10.5,47,25,10,30.07,29.94,6,1,11,0.00
2013-11-19,46.9,35.3,21.7,13.3,4.9,-8.6,45,30,10,29.94,29.70,5,1,7,0.00
2013-11-20,58.8,41.5,26.2,20.2,5.7,-8.8,55,27,10,29.98,29.72,14,2,22,0.00
2013-11-21,26.6,17.4,13.3,5.4,-1.1,-9.8,53,44,28,30.40,29.98,9,2,14,0.00
2013-11-22,31.1,21.6,12.2,6.4,-0.6,-13.1,53,39,17,30.44,30.32,4,0,7,0.09
2013-11-23,36.0,27.1,21.6,7.5,2.0,-6.0,47,34,17,30.45,30.19,8,1,12,0.01
2013-11-24,41.9,27.7,17.2,12.4,3.9,-12.7,55,39,10,30.19,29.89,11,2,19,0.00
2013-11-25,43.9,37.1,24.8,12.4,-3.7,-14.7,49,21,10,30.20,29.94,12,2,18,0.00
2013-11-26,54.9,35.2,22.6,12.6,2.8,-11.1,51,30,10,30.25,30.14,11,2,18,0.00
2013-11-27,59.4,35.0,17.2,13.6,3.5,-6.9,51,32,10,30.14,29.93,6,1,8,0.00
2013-11-28,46.9,31.7,21.2,12.5,3.6,-8.8,48,33,10,30.15,30.04,4,1,7,0.00
2013-11-29,61.3,37.1,20.8,16.7,2.4,-13.9,53,29,10,30.07,29.97,6,1,8,0.01
2013-11-30,57.2,35.6,19.4,9.9,0.2,-15.1,46,26,10,30.10,30.00,7,1,11,0.00
2013-12-1,57.2,40.6,24.4,10.8,-1.1,-12.6,45,21,10,30.06,29.79,9,2,14,0.00
2013-12-2,61.5,51.5,39.0,4.3,-3.3,-13.0,10,10,10,29.81,29.54,17,4,28,0.00
2013-12-3,48.9,28.7,9.3,7.1,-6.0,-16.8,49,26,10,29.74,29.47,11,4,21,0.00
2013-12-4,11.8,6.4,-4.2,-7.2,-20.7,-38.3,46,30,10,29.98,29.70,12,4,19,0.00
2013-12-5,13.5,-0.1,-13.5,-21.2,-29.7,-37.6,35,24,10,30.02,29.90,4,1,8,0.00
2013-12-6,12.9,-1.3,-9.8,-24.1,-32.2,-38.5,29,22,10,30.10,30.01,4,1,8,0.00
2013-12-7,12.7,0.7,-12.1,-18.7,-30.4,-40.7,30,21,10,30.08,29.72,4,1,5,0.00
2013-12-8,16.2,6.4,-2.4,-18.6,-23.8,-32.2,31,24,10,29.96,29.66,8,1,10,0.00
2013-12-9,54.7,24.8,-8.3,-0.9,-17.0,-35.6,34,17,10,30.00,29.80,5,1,8,0.00
2013-12-10,54.7,22.6,-0.2,-0.9,-22.1,-35.7,26,13,10,30.00,29.71,18,4,30,0.01
2013-12-11,31.8,17.3,5.4,-10.8,-19.2,-26.6,28,19,10,30.11,30.00,7,1,9,0.00
2013-12-12,49.1,22.6,4.6,-5.5,-18.7,-26.6,26,16,10,30.06,29.76,4,1,6,0.00
2013-12-13,49.1,30.3,9.9,-5.2,-15.4,-23.4,23,13,10,29.94,29.67,10,2,18,0.00
2013-12-14,44.6,30.1,22.8,-8.6,-19.0,-25.1,18,11,10,30.03,29.93,9,2,15,0.00
2013-12-15,49.3,32.1,17.4,9.4,-13.0,-21.6,64,14,10,29.96,29.85,8,1,11,0.00
2013-12-16,64.9,50.0,31.3,7.1,-4.4,-18.9,10,10,10,30.02,29.85,12,3,20,0.00
2013-12-17,57.0,37.0,25.0,1.0,-14.4,-23.8,12,10,10,30.08,29.84,7,2,9,0.00
2013-12-18,55.6,38.8,26.8,-0.1,-13.1,-22.4,11,10,10,29.85,29.57,5,1,9,0.00
2013-12-19,43.2,30.6,16.9,-9.7,-19.2,-30.1,13,10,10,29.72,29.43,11,2,17,0.00
2013-12-20,25.0,18.8,13.3,-9.8,-16.6,-30.1,26,19,10,29.71,29.51,8,1,11,0.00
2013-12-21,35.1,24.2,11.7,2.5,-10.9,-20.3,32,22,10,29.71,29.44,5,1,10,0.00
2013-12-22,36.5,26.3,17.8,-1.2,-14.2,-26.7,33,18,10,30.01,29.71,8,2,16,0.00
2013-12-23,28.4,21.2,14.2,-7.7,-13.8,-22.3,27,20,10,30.06,29.87,7,1,12,0.06
2013-12-24,52.5,28.4,15.8,-2.4,-15.3,-30.1,27,15,10,30.05,29.78,19,4,34,0.05
2013-12-25,42.8,25.4,13.6,-10.0,-20.3,-29.3,19,12,10,30.15,29.97,8,1,11,0.00
2013-12-26,53.1,31.8,17.1,-2.0,-17.8,-29.0,15,10,10,30.06,29.94,8,2,11,0.00
2013-12-27,57.4,33.0,18.0,1.3,-16.3,-29.0,16,11,10,30.06,29.85,6,1,10,0.00
2013-12-28,53.8,31.9,19.8,-1.5,-16.5,-27.0,18,11,10,30.00,29.69,13,3,21,0.00
2013-12-29,36.5,24.7,14.2,-14.8,-21.5,-28.6,22,12,10,30.02,29.72,8,2,14,0.00
2013-12-30,50.0,32.9,18.7,-4.5,-17.7,-28.9,10,10,10,29.97,29.77,11,2,16,0.00
2013-12-31,58.3,38.0,20.5,2.0,-13.7,-27.3,10,10,10,29.89,29.73,11,2,15,0.00
2014-1-1,40.8,31.6,16.9,4.2,-13.2,-23.1,29,14,10,30.06,29.71,14,2,25,0.06
2014-1-2,42.8,24.8,11.3,-10.0,-18.9,-27.6,21,14,10,30.03,29.81,4,1,8,0.00